Location: ?????????
(38.5999°N, 22.7695°E)
Time: 11:25:05
(UTC+00:00)

Cosmos 1386 Rocket - Pass Details

Date: 23 May 2024
Orbit: 928 x 1006 km, 83.0° (Epoch: 18 June)

Event Time Altitude Azimuth Distance (km) Brightness Sun altitude
Exits shadow 00:10:39 60° 226° (SW) 1,143 4.5 -25.9°
Maximum altitude 00:11:41 70° 278° (W) 1,065 4.5 -25.8°
Drops below altitude 10° 00:18:05 10° 2° (N) 2,782 7.7 -25.2°
Sets 00:20:39 0° 5° (N) 3,730 8.6 -24.9°
